Time,TemperatureF,DewpointF,PressureIn,WindDirection,WindDirectionDegrees,WindSpeedMPH,WindSpeedGustMPH,Humidity,HourlyPrecipIn,Conditions,Clouds,dailyrainin,SoftwareType,DateUTC
2013-02-24 00:00:00,42.5,19.3,29.94,WSW,242,3.0,3.0,39,0.00,,,0.00,Wunderground v.1.15,2013-02-24 07:00:00,
2013-02-24 00:10:00,42.0,18.8,29.95,SW,234,2.0,16.0,39,0.00,,,0.00,Wunderground v.1.15,2013-02-24 07:10:00,
2013-02-24 00:20:00,41.6,19.0,29.95,SW,228,3.0,3.0,40,0.00,,,0.00,Wunderground v.1.15,2013-02-24 07:20:00,
2013-02-24 00:25:00,41.4,19.4,29.95,SW,230,2.0,3.0,41,0.00,,,0.00,Wunderground v.1.15,2013-02-24 07:25:00,
2013-02-24 00:35:00,41.9,19.9,29.95,WSW,258,5.0,7.0,41,0.00,,,0.00,Wunderground v.1.15,2013-02-24 07:35:00,
2013-02-24 00:45:00,42.2,20.2,29.95,West,263,7.0,11.0,41,0.00,,,0.00,Wunderground v.1.15,2013-02-24 07:45:00,
2013-02-24 00:50:00,42.2,20.2,29.95,WSW,248,9.0,9.0,41,0.00,,,0.00,Wunderground v.1.15,2013-02-24 07:50:00,
2013-02-24 01:00:00,41.9,20.4,29.95,West,263,7.0,7.0,42,0.00,,,0.00,Wunderground v.1.15,2013-02-24 08:00:00,
2013-02-24 01:10:00,41.6,20.7,29.95,West,265,7.0,11.0,43,0.00,,,0.00,Wunderground v.1.15,2013-02-24 08:10:00,
2013-02-24 01:20:00,40.6,19.8,29.95,West,273,7.0,7.0,43,0.00,,,0.00,Wunderground v.1.15,2013-02-24 08:20:00,
2013-02-24 01:25:00,40.0,19.8,29.97,West,281,7.0,7.0,44,0.00,,,0.00,Wunderground v.1.15,2013-02-24 08:25:00,
2013-02-24 01:35:00,39.0,21.9,29.97,NNW,330,6.0,9.0,50,0.00,,,0.00,Wunderground v.1.15,2013-02-24 08:35:00,
2013-02-24 01:40:00,38.3,22.6,29.98,NW,321,7.0,18.0,53,0.00,,,0.00,Wunderground v.1.15,2013-02-24 08:40:00,
2013-02-24 01:50:00,38.0,23.7,29.98,NW,325,8.0,8.0,56,0.00,,,0.00,Wunderground v.1.15,2013-02-24 08:50:00,
2013-02-24 02:00:00,37.5,23.6,29.98,NW,315,7.0,7.0,57,0.00,,,0.00,Wunderground v.1.15,2013-02-24 09:00:00,
2013-02-24 02:10:00,36.7,24.1,29.98,NW,311,8.0,18.0,60,0.00,,,0.00,Wunderground v.1.15,2013-02-24 09:10:00,
2013-02-24 02:20:00,36.1,23.9,29.98,NW,313,7.0,18.0,61,0.00,,,0.00,Wunderground v.1.15,2013-02-24 09:20:00,
2013-02-24 02:25:00,35.8,24.0,29.98,NW,315,8.0,18.0,62,0.00,,,0.00,Wunderground v.1.15,2013-02-24 09:25:00,
2013-02-24 02:30:00,35.6,23.1,29.98,NNW,330,11.0,13.0,60,0.00,,,0.00,Wunderground v.1.15,2013-02-24 09:30:00,
2013-02-24 02:35:00,35.4,22.9,29.97,NNW,333,11.0,16.0,60,0.00,,,0.00,Wunderground v.1.15,2013-02-24 09:35:00,
2013-02-24 02:40:00,35.2,22.7,29.97,NW,311,10.0,16.0,60,0.00,,,0.00,Wunderground v.1.15,2013-02-24 09:40:00,
2013-02-24 02:50:00,34.8,21.9,29.96,NW,314,11.0,16.0,59,0.00,,,0.00,Wunderground v.1.15,2013-02-24 09:50:00,
2013-02-24 03:00:00,34.6,21.7,29.95,NW,311,13.0,13.0,59,0.00,,,0.00,Wunderground v.1.15,2013-02-24 10:00:00,
2013-02-24 03:10:00,34.4,21.1,29.95,NW,309,11.0,16.0,58,0.00,,,0.00,Wunderground v.1.15,2013-02-24 10:10:00,
2013-02-24 03:20:00,34.2,21.4,29.95,WNW,302,10.0,10.0,59,0.00,,,0.00,Wunderground v.1.15,2013-02-24 10:20:00,
2013-02-24 03:25:00,34.2,21.4,29.95,NW,314,9.0,10.0,59,0.00,,,0.00,Wunderground v.1.15,2013-02-24 10:25:00,
2013-02-24 03:35:00,33.9,21.1,29.95,NW,312,9.0,23.0,59,0.00,,,0.00,Wunderground v.1.15,2013-02-24 10:35:00,
2013-02-24 03:40:00,33.7,20.9,29.94,NW,312,9.0,9.0,59,0.00,,,0.00,Wunderground v.1.15,2013-02-24 10:40:00,
2013-02-24 03:50:00,33.5,21.1,29.93,WNW,303,10.0,23.0,60,0.00,,,0.00,Wunderground v.1.15,2013-02-24 10:50:00,
2013-02-24 03:55:00,33.4,21.4,29.93,NW,313,11.0,23.0,61,0.00,,,0.00,Wunderground v.1.15,2013-02-24 10:55:00,
2013-02-24 04:05:00,33.0,22.1,29.92,NW,311,12.0,23.0,64,0.00,,,0.00,Wunderground v.1.15,2013-02-24 11:05:00,
2013-02-24 04:15:00,32.4,20.8,29.93,NW,304,11.0,15.0,62,0.00,,,0.00,Wunderground v.1.15,2013-02-24 11:15:00,
2013-02-24 04:25:00,32.0,20.1,29.93,NW,310,11.0,11.0,61,0.00,,,0.00,Wunderground v.1.15,2013-02-24 11:25:00,
2013-02-24 04:30:00,31.6,19.7,29.93,NW,304,10.0,10.0,61,0.00,,,0.00,Wunderground v.1.15,2013-02-24 11:30:00,
2013-02-24 04:40:00,31.3,19.4,29.94,NW,323,9.0,9.0,61,0.00,,,0.00,Wunderground v.1.15,2013-02-24 11:40:00,
2013-02-24 04:50:00,31.2,18.9,29.95,NW,321,6.0,6.0,60,0.00,,,0.00,Wunderground v.1.15,2013-02-24 11:50:00,
2013-02-24 05:00:00,31.2,18.9,29.96,NNW,340,5.0,23.0,60,0.00,,,0.00,Wunderground v.1.15,2013-02-24 12:00:00,
2013-02-24 05:10:00,31.5,18.8,29.95,NW,325,8.0,8.0,59,0.00,,,0.00,Wunderground v.1.15,2013-02-24 12:10:00,
2013-02-24 05:20:00,31.8,18.7,29.95,NW,309,4.0,23.0,58,0.00,,,0.00,Wunderground v.1.15,2013-02-24 12:20:00,
2013-02-24 05:25:00,31.8,18.7,29.94,North,355,6.0,23.0,58,0.00,,,0.00,Wunderground v.1.15,2013-02-24 12:25:00,
2013-02-24 05:35:00,31.7,19.0,29.93,NNE,12,3.0,16.0,59,0.00,,,0.00,Wunderground v.1.15,2013-02-24 12:35:00,
2013-02-24 05:45:00,31.3,19.0,29.93,NNE,28,2.0,16.0,60,0.00,,,0.00,Wunderground v.1.15,2013-02-24 12:45:00,
2013-02-24 05:55:00,31.3,19.0,29.93,NNE,22,2.0,16.0,60,0.00,,,0.00,Wunderground v.1.15,2013-02-24 12:55:00,
2013-02-24 06:05:00,31.2,18.5,29.95,NNE,22,2.0,16.0,59,0.00,,,0.00,Wunderground v.1.15,2013-02-24 13:05:00,
2013-02-24 06:10:00,31.2,18.9,29.95,NNE,22,1.0,1.0,60,0.00,,,0.00,Wunderground v.1.15,2013-02-24 13:10:00,
2013-02-24 06:20:00,31.4,18.7,29.95,NNE,21,1.0,16.0,59,0.00,,,0.00,Wunderground v.1.15,2013-02-24 13:20:00,
2013-02-24 06:25:00,31.4,18.7,29.94,NNE,20,2.0,16.0,59,0.00,,,0.00,Wunderground v.1.15,2013-02-24 13:25:00,
2013-02-24 06:35:00,31.2,18.5,29.94,North,360,4.0,4.0,59,0.00,,,0.00,Wunderground v.1.15,2013-02-24 13:35:00,
2013-02-24 06:45:00,31.2,18.5,29.94,NNW,348,4.0,6.0,59,0.00,,,0.00,Wunderground v.1.15,2013-02-24 13:45:00,
2013-02-24 06:50:00,31.1,18.8,29.94,NNW,333,4.0,6.0,60,0.00,,,0.00,Wunderground v.1.15,2013-02-24 13:50:00,
2013-02-24 07:00:00,31.0,18.7,29.94,NNW,332,2.0,2.0,60,0.00,,,0.00,Wunderground v.1.15,2013-02-24 14:00:00,
2013-02-24 07:10:00,31.0,18.7,29.94,NNW,332,0.0,6.0,60,0.00,,,0.00,Wunderground v.1.15,2013-02-24 14:10:00,
2013-02-24 07:15:00,31.0,18.7,29.94,NNW,332,0.0,6.0,60,0.00,,,0.00,Wunderground v.1.15,2013-02-24 14:15:00,
2013-02-24 07:25:00,31.1,18.8,29.93,NNW,333,1.0,6.0,60,0.00,,,0.00,Wunderground v.1.15,2013-02-24 14:25:00,
2013-02-24 07:35:00,31.5,18.8,29.94,NNW,333,2.0,4.0,59,0.00,,,0.00,Wunderground v.1.15,2013-02-24 14:35:00,
2013-02-24 07:40:00,31.6,18.5,29.94,NNW,331,2.0,2.0,58,0.00,,,0.00,Wunderground v.1.15,2013-02-24 14:40:00,
2013-02-24 07:50:00,31.9,18.4,29.95,NW,319,5.0,9.0,57,0.00,,,0.00,Wunderground v.1.15,2013-02-24 14:50:00,
2013-02-24 08:00:00,31.8,18.7,29.95,North,350,8.0,9.0,58,0.00,,,0.00,Wunderground v.1.15,2013-02-24 15:00:00,
2013-02-24 08:10:00,31.6,18.9,29.95,NNW,329,8.0,8.0,59,0.00,,,0.00,Wunderground v.1.15,2013-02-24 15:10:00,
2013-02-24 08:15:00,31.7,18.6,29.94,NNW,335,6.0,9.0,58,0.00,,,0.00,Wunderground v.1.15,2013-02-24 15:15:00,
2013-02-24 08:25:00,31.8,18.3,29.95,NNW,342,10.0,13.0,57,0.00,,,0.00,Wunderground v.1.15,2013-02-24 15:25:00,
2013-02-24 08:35:00,31.9,17.5,29.94,NNW,327,9.0,15.0,55,0.00,,,0.00,Wunderground v.1.15,2013-02-24 15:35:00,
2013-02-24 08:45:00,32.0,17.2,29.94,NNW,331,9.0,15.0,54,0.00,,,0.00,Wunderground v.1.15,2013-02-24 15:45:00,
2013-02-24 08:55:00,32.0,17.2,29.93,NNW,328,10.0,15.0,54,0.00,,,0.00,Wunderground v.1.15,2013-02-24 15:55:00,
2013-02-24 09:00:00,32.3,17.1,29.94,North,350,9.0,9.0,53,0.00,,,0.00,Wunderground v.1.15,2013-02-24 16:00:00,
2013-02-24 09:05:00,32.3,17.1,29.94,North,360,9.0,15.0,53,0.00,,,0.00,Wunderground v.1.15,2013-02-24 16:05:00,
2013-02-24 09:10:00,32.0,17.2,29.94,North,360,11.0,15.0,54,0.00,,,0.00,Wunderground v.1.15,2013-02-24 16:10:00,
2013-02-24 09:15:00,31.9,17.5,29.94,North,351,11.0,15.0,55,0.00,,,0.00,Wunderground v.1.15,2013-02-24 16:15:00,
2013-02-24 09:25:00,32.4,16.7,29.93,NW,311,9.0,15.0,52,0.00,,,0.00,Wunderground v.1.15,2013-02-24 16:25:00,
2013-02-24 09:35:00,33.2,16.5,29.93,NW,311,9.0,21.0,50,0.00,,,0.00,Wunderground v.1.15,2013-02-24 16:35:00,
2013-02-24 09:40:00,33.4,15.8,29.93,NW,313,9.0,21.0,48,0.00,,,0.00,Wunderground v.1.15,2013-02-24 16:40:00,
2013-02-24 09:50:00,33.9,14.3,29.92,NW,325,11.0,21.0,44,0.00,,,0.00,Wunderground v.1.15,2013-02-24 16:50:00,
2013-02-24 09:59:00,34.5,10.9,29.92,NW,313,13.0,21.0,37,0.00,,,0.00,Wunderground v.1.15,2013-02-24 16:59:00,
2013-02-24 10:05:00,34.6,10.3,29.91,North,355,12.0,21.0,36,0.00,,,0.00,Wunderground v.1.15,2013-02-24 17:05:00,
2013-02-24 10:15:00,34.8,9.2,29.91,NW,320,11.0,21.0,34,0.00,,,0.00,Wunderground v.1.15,2013-02-24 17:15:00,
2013-02-24 10:24:00,34.9,9.3,29.91,NW,313,11.0,11.0,34,0.00,,,0.00,Wunderground v.1.15,2013-02-24 17:24:00,
2013-02-24 10:34:00,35.3,9.0,29.91,NW,311,11.0,22.0,33,0.00,,,0.00,Wunderground v.1.15,2013-02-24 17:34:00,
2013-02-24 10:45:00,36.2,10.5,29.90,NW,309,10.0,13.0,34,0.00,,,0.00,Wunderground v.1.15,2013-02-24 17:45:00,
2013-02-24 10:54:00,37.3,11.5,29.90,North,5,11.0,22.0,34,0.00,,,0.00,Wunderground v.1.15,2013-02-24 17:54:00,
2013-02-24 11:04:00,37.1,11.9,29.90,NNW,327,8.0,22.0,35,0.00,,,0.00,Wunderground v.1.15,2013-02-24 18:04:00,
2013-02-24 11:14:00,38.0,10.0,29.89,NW,313,8.0,22.0,31,0.00,,,0.00,Wunderground v.1.15,2013-02-24 18:14:00,
2013-02-24 11:24:00,38.6,9.8,29.88,North,355,10.0,10.0,30,0.00,,,0.00,Wunderground v.1.15,2013-02-24 18:24:00,
2013-02-24 11:34:00,37.6,10.4,29.88,North,9,10.0,16.0,32,0.00,,,0.00,Wunderground v.1.15,2013-02-24 18:34:00,
2013-02-24 11:44:00,38.3,11.7,29.87,NW,307,10.0,14.0,33,0.00,,,0.00,Wunderground v.1.15,2013-02-24 18:44:00,
2013-02-24 11:54:00,38.4,11.8,29.87,NW,317,8.0,19.0,33,0.00,,,0.00,Wunderground v.1.15,2013-02-24 18:54:00,
2013-02-24 11:59:00,39.0,12.3,29.86,North,360,8.0,19.0,33,0.00,,,0.00,Wunderground v.1.15,2013-02-24 18:59:00,
2013-02-24 12:04:00,38.9,12.9,29.86,NW,319,9.0,19.0,34,0.00,,,0.00,Wunderground v.1.15,2013-02-24 19:04:00,
2013-02-24 12:14:00,38.9,11.5,29.86,NW,322,9.0,14.0,32,0.00,,,0.00,Wunderground v.1.15,2013-02-24 19:14:00,
2013-02-24 12:24:00,39.0,11.6,29.85,NNW,330,10.0,10.0,32,0.00,,,0.00,Wunderground v.1.15,2013-02-24 19:24:00,
2013-02-24 12:34:00,39.4,11.9,29.84,NW,319,6.0,15.0,32,0.00,,,0.00,Wunderground v.1.15,2013-02-24 19:34:00,
2013-02-24 12:39:00,39.2,10.3,29.84,NNW,333,8.0,19.0,30,0.00,,,0.00,Wunderground v.1.15,2013-02-24 19:39:00,
2013-02-24 12:49:00,39.0,9.4,29.84,NNW,335,12.0,22.0,29,0.00,,,0.00,Wunderground v.1.15,2013-02-24 19:49:00,
2013-02-24 12:59:00,39.6,9.1,29.84,NW,312,12.0,12.0,28,0.00,,,0.00,Wunderground v.1.15,2013-02-24 19:59:00,
2013-02-24 13:09:00,39.7,8.4,29.83,NW,322,11.0,11.0,27,0.00,,,0.00,Wunderground v.1.15,2013-02-24 20:09:00,
2013-02-24 13:19:00,39.6,7.5,29.83,NW,308,14.0,19.0,26,0.00,,,0.00,Wunderground v.1.15,2013-02-24 20:19:00,
2013-02-24 13:29:00,39.6,7.5,29.83,NW,308,13.0,23.0,26,0.00,,,0.00,Wunderground v.1.15,2013-02-24 20:29:00,
2013-02-24 13:38:00,39.5,8.2,29.83,WNW,292,14.0,14.0,27,0.00,,,0.00,Wunderground v.1.15,2013-02-24 20:38:00,
2013-02-24 13:49:00,39.3,8.9,29.83,NNW,330,14.0,23.0,28,0.00,,,0.00,Wunderground v.1.15,2013-02-24 20:49:00,
2013-02-24 13:58:00,39.7,8.4,29.82,NW,313,14.0,23.0,27,0.00,,,0.00,Wunderground v.1.15,2013-02-24 20:58:00,
2013-02-24 14:03:00,39.4,8.9,29.82,NW,309,15.0,23.0,28,0.00,,,0.00,Wunderground v.1.15,2013-02-24 21:03:00,
2013-02-24 14:13:00,39.5,9.0,29.83,WNW,297,15.0,23.0,28,0.00,,,0.00,Wunderground v.1.15,2013-02-24 21:13:00,
2013-02-24 14:18:00,39.7,8.4,29.83,NNW,331,15.0,24.0,27,0.00,,,0.00,Wunderground v.1.15,2013-02-24 21:18:00,
2013-02-24 14:23:00,39.1,8.7,29.82,NNW,346,16.0,24.0,28,0.00,,,0.00,Wunderground v.1.15,2013-02-24 21:23:00,
2013-02-24 14:33:00,38.7,8.3,29.83,NW,306,17.0,29.0,28,0.00,,,0.00,Wunderground v.1.15,2013-02-24 21:33:00,
2013-02-24 14:38:00,39.2,8.8,29.83,NW,314,16.0,16.0,28,0.00,,,0.00,Wunderground v.1.15,2013-02-24 21:38:00,
2013-02-24 14:43:00,38.5,8.9,29.83,NNW,331,16.0,18.0,29,0.00,,,0.00,Wunderground v.1.15,2013-02-24 21:43:00,
2013-02-24 14:48:00,39.0,8.6,29.83,NNW,333,16.0,29.0,28,0.00,,,0.00,Wunderground v.1.15,2013-02-24 21:48:00,
2013-02-24 14:58:00,39.2,8.8,29.83,NW,323,17.0,29.0,28,0.00,,,0.00,Wunderground v.1.15,2013-02-24 21:58:00,
2013-02-24 15:08:00,39.7,8.4,29.84,NW,316,16.0,29.0,27,0.00,,,0.00,Wunderground v.1.15,2013-02-24 22:08:00,
2013-02-24 15:18:00,39.7,6.7,29.84,NW,314,18.0,29.0,25,0.00,,,0.00,Wunderground v.1.15,2013-02-24 22:18:00,
2013-02-24 15:28:00,38.7,4.9,29.85,NW,306,18.0,18.0,24,0.00,,,0.00,Wunderground v.1.15,2013-02-24 22:28:00,
2013-02-24 15:38:00,38.5,4.8,29.85,NW,315,16.0,16.0,24,0.00,,,0.00,Wunderground v.1.15,2013-02-24 22:38:00,
2013-02-24 15:48:00,38.1,4.4,29.85,NNW,328,17.0,29.0,24,0.00,,,0.00,Wunderground v.1.15,2013-02-24 22:48:00,
2013-02-24 15:53:00,38.0,4.3,29.86,NW,313,16.0,29.0,24,0.00,,,0.00,Wunderground v.1.15,2013-02-24 22:53:00,
2013-02-24 16:03:00,37.9,5.1,29.86,NNW,339,16.0,29.0,25,0.00,,,0.00,Wunderground v.1.15,2013-02-24 23:03:00,
2013-02-24 16:13:00,37.5,5.7,29.86,NW,317,19.0,29.0,26,0.00,,,0.00,Wunderground v.1.15,2013-02-24 23:13:00,
2013-02-24 16:18:00,37.6,5.7,29.86,NW,311,18.0,18.0,26,0.00,,,0.00,Wunderground v.1.15,2013-02-24 23:18:00,
2013-02-24 16:23:00,37.5,5.7,29.87,NW,319,18.0,18.0,26,0.00,,,0.00,Wunderground v.1.15,2013-02-24 23:23:00,
2013-02-24 16:33:00,37.6,6.6,29.87,NW,310,15.0,35.0,27,0.00,,,0.00,Wunderground v.1.15,2013-02-24 23:33:00,
2013-02-24 16:43:00,37.6,4.9,29.88,NW,304,14.0,35.0,25,0.00,,,0.00,Wunderground v.1.15,2013-02-24 23:43:00,
2013-02-24 16:48:00,37.5,4.8,29.88,NW,306,15.0,35.0,25,0.00,,,0.00,Wunderground v.1.15,2013-02-24 23:48:00,
2013-02-24 16:58:00,37.3,3.7,29.89,WNW,294,18.0,18.0,24,0.00,,,0.00,Wunderground v.1.15,2013-02-24 23:58:00,
2013-02-24 17:08:00,37.2,4.5,29.89,NW,305,16.0,35.0,25,0.00,,,0.00,Wunderground v.1.15,2013-02-25 00:08:00,
2013-02-24 17:17:00,37.1,5.3,29.89,WNW,301,17.0,17.0,26,0.00,,,0.00,Wunderground v.1.15,2013-02-25 00:17:00,
2013-02-24 17:27:00,36.9,5.1,29.90,WNW,302,18.0,18.0,26,0.00,,,0.00,Wunderground v.1.15,2013-02-25 00:27:00,
2013-02-24 17:37:00,36.9,4.3,29.90,NW,324,15.0,32.0,25,0.00,,,0.00,Wunderground v.1.15,2013-02-25 00:37:00,
2013-02-24 17:47:00,36.8,4.2,29.91,NW,311,16.0,16.0,25,0.00,,,0.00,Wunderground v.1.15,2013-02-25 00:47:00,
2013-02-24 17:57:00,36.6,4.0,29.91,NW,309,16.0,32.0,25,0.00,,,0.00,Wunderground v.1.15,2013-02-25 00:57:00,
2013-02-24 18:07:00,36.5,4.8,29.92,WNW,303,16.0,32.0,26,0.00,,,0.00,Wunderground v.1.15,2013-02-25 01:07:00,
2013-02-24 18:12:00,36.3,3.8,29.92,NW,310,17.0,32.0,25,0.00,,,0.00,Wunderground v.1.15,2013-02-25 01:12:00,
2013-02-24 18:22:00,36.4,3.9,29.93,NW,309,15.0,17.0,25,0.00,,,0.00,Wunderground v.1.15,2013-02-25 01:22:00,
2013-02-24 18:32:00,36.2,4.5,29.94,NW,310,15.0,32.0,26,0.00,,,0.00,Wunderground v.1.15,2013-02-25 01:32:00,
2013-02-24 18:42:00,36.2,4.5,29.94,NNW,331,17.0,32.0,26,0.00,,,0.00,Wunderground v.1.15,2013-02-25 01:42:00,
2013-02-24 18:47:00,36.2,3.7,29.95,NW,321,17.0,32.0,25,0.00,,,0.00,Wunderground v.1.15,2013-02-25 01:47:00,
2013-02-24 18:57:00,36.2,3.7,29.95,NW,317,17.0,32.0,25,0.00,,,0.00,Wunderground v.1.15,2013-02-25 01:57:00,
2013-02-24 19:07:00,36.1,3.6,29.96,NNW,339,15.0,32.0,25,0.00,,,0.00,Wunderground v.1.15,2013-02-25 02:07:00,
2013-02-24 19:17:00,36.1,3.6,29.96,NNW,333,15.0,32.0,25,0.00,,,0.00,Wunderground v.1.15,2013-02-25 02:17:00,
2013-02-24 19:27:00,36.0,5.2,29.98,NNW,342,16.0,16.0,27,0.00,,,0.00,Wunderground v.1.15,2013-02-25 02:27:00,
2013-02-24 19:32:00,35.7,6.5,29.99,NW,321,15.0,29.0,29,0.00,,,0.00,Wunderground v.1.15,2013-02-25 02:32:00,
2013-02-24 19:42:00,34.5,11.5,30.00,NNW,348,17.0,29.0,38,0.00,,,0.00,Wunderground v.1.15,2013-02-25 02:42:00,
2013-02-24 19:52:00,34.0,12.7,30.00,NNW,341,14.0,29.0,41,0.00,,,0.00,Wunderground v.1.15,2013-02-25 02:52:00,
2013-02-24 20:02:00,33.9,13.2,30.01,NW,320,15.0,29.0,42,0.00,,,0.00,Wunderground v.1.15,2013-02-25 03:02:00,
2013-02-24 20:12:00,32.5,16.8,30.01,NNW,328,15.0,29.0,52,0.00,,,0.00,Wunderground v.1.15,2013-02-25 03:12:00,
2013-02-24 20:17:00,31.8,17.5,30.02,NNW,328,16.0,29.0,55,0.00,,,0.00,Wunderground v.1.15,2013-02-25 03:17:00,
2013-02-24 20:27:00,32.3,16.2,30.01,NW,311,15.0,17.0,51,0.00,,,0.00,Wunderground v.1.15,2013-02-25 03:27:00,
2013-02-24 20:37:00,32.9,13.9,30.02,North,350,15.0,15.0,45,0.00,,,0.00,Wunderground v.1.15,2013-02-25 03:37:00,
2013-02-24 20:46:00,33.2,13.1,30.03,NW,307,15.0,15.0,43,0.00,,,0.00,Wunderground v.1.15,2013-02-25 03:46:00,
2013-02-24 20:52:00,33.4,13.3,30.02,NNW,329,15.0,30.0,43,0.00,,,0.00,Wunderground v.1.15,2013-02-25 03:52:00,
2013-02-24 21:02:00,33.9,11.5,30.03,NW,324,10.0,30.0,39,0.00,,,0.00,Wunderground v.1.15,2013-02-25 04:02:00,
2013-02-24 21:11:00,34.5,9.6,30.03,NNE,22,8.0,9.0,35,0.00,,,0.00,Wunderground v.1.15,2013-02-25 04:11:00,
2013-02-24 21:21:00,35.0,10.1,30.04,NW,316,12.0,30.0,35,0.00,,,0.00,Wunderground v.1.15,2013-02-25 04:21:00,
2013-02-24 21:32:00,33.7,15.1,30.06,NNW,338,17.0,17.0,46,0.00,,,0.00,Wunderground v.1.15,2013-02-25 04:32:00,
2013-02-24 21:41:00,32.5,18.1,30.06,NNE,14,13.0,24.0,55,0.00,,,0.00,Wunderground v.1.15,2013-02-25 04:41:00,
2013-02-24 21:51:00,32.2,18.2,30.07,North,11,11.0,24.0,56,0.00,,,0.00,Wunderground v.1.15,2013-02-25 04:51:00,
2013-02-24 22:01:00,31.2,21.2,30.07,NNW,330,11.0,24.0,66,0.00,,,0.00,Wunderground v.1.15,2013-02-25 05:01:00,
2013-02-24 22:11:00,31.4,20.6,30.07,NNE,15,10.0,24.0,64,0.00,,,0.00,Wunderground v.1.15,2013-02-25 05:11:00,
2013-02-24 22:21:00,31.9,21.1,30.07,NNW,338,8.0,9.0,64,0.00,,,0.00,Wunderground v.1.15,2013-02-25 05:21:00,
2013-02-24 22:31:00,31.3,23.3,30.08,NNE,19,8.0,19.0,72,0.00,,,0.00,Wunderground v.1.15,2013-02-25 05:31:00,
2013-02-24 22:41:00,30.8,23.5,30.08,NE,36,4.0,19.0,74,0.00,,,0.00,Wunderground v.1.15,2013-02-25 05:41:00,
2013-02-24 22:46:00,30.8,24.1,30.08,NE,43,3.0,19.0,76,0.00,,,0.00,Wunderground v.1.15,2013-02-25 05:46:00,
2013-02-24 22:56:00,30.4,24.4,30.08,NE,44,1.0,19.0,78,0.00,,,0.00,Wunderground v.1.15,2013-02-25 05:56:00,
2013-02-24 23:06:00,30.4,24.7,30.09,NE,48,2.0,19.0,79,0.00,,,0.00,Wunderground v.1.15,2013-02-25 06:06:00,
2013-02-24 23:16:00,30.6,23.9,30.09,North,5,4.0,19.0,76,0.00,,,0.00,Wunderground v.1.15,2013-02-25 06:16:00,
2013-02-24 23:26:00,31.7,22.0,30.09,North,9,6.0,7.0,67,0.00,,,0.00,Wunderground v.1.15,2013-02-25 06:26:00,
2013-02-24 23:36:00,32.4,21.2,30.09,North,355,4.0,9.0,63,0.00,,,0.00,Wunderground v.1.15,2013-02-25 06:36:00,
2013-02-24 23:46:00,32.9,19.7,30.10,North,355,3.0,3.0,58,0.00,,,0.00,Wunderground v.1.15,2013-02-25 06:46:00,
2013-02-24 23:56:00,33.4,18.1,30.10,NNW,336,7.0,10.0,53,0.00,,,0.00,Wunderground v.1.15,2013-02-25 06:56:00,